Location: Ambatotampy
(18.8181°S, 47.6186°E)
Time: 19:03:05
(UTC+00:00)

Cosmos 841 Rocket - Pass Details

Date: 21 January 2021
Orbit: 746 x 773 km, 74.0° (Epoch: 08 March)

Event Time Altitude Azimuth Distance (km) Brightness Sun altitude
Rises 01:03:37 0° 194° (SSW) 3,229 6.9 -19.0°
Reaches altitude 10° 01:06:00 10° 194° (SSW) 2,294 6.2 -18.5°
Maximum altitude 01:11:12 90° 127° (SE) 758 3.4 -17.4°
Drops below altitude 10° 01:16:20 10° 13° (NNE) 2,256 5.8 -16.4°
Sets 01:18:40 0° 13° (NNE) 3,172 6.5 -15.9°
